Location: Gleizolles
(44.4833°N, 6.7667°E)
Time: 01:35:07
(UTC+00:00)

S-56A Canister/Altair - Pass Details

Date: 29 June 2024
Orbit: 638 x 2488 km, 38.9° (Epoch: 24 July)

Event Time Altitude Azimuth Distance (km) Brightness Sun altitude
Rises 19:29:19 0° 249° (WSW) 3,634 11.5 -2.0°
Reaches altitude 10° 19:31:34 10° 245° (WSW) 2,872 10.9 -2.3°
Maximum altitude 19:38:31 58° 168° (SSE) 1,583 8.9 -3.3°
Drops below altitude 10° 19:49:06 10° 94° (E) 4,284 10.8 -4.7°
Sets 19:53:13 0° 91° (E) 5,546 11.4 -5.3°
